Simultaneous Nadir Overpasses (SNOs) Predictions

Prediction of SNOs between METOP-B and TERRA Satellite Orbit:

Table of predicted SNOs for the next 14.0 days since TLE Epoch: 9/28/2024
Index Date (METOP-B) Time (METOP-B) Lat,Lon (METOP-B) SZA (METOP-B ) Date (TERRA) Time (TERRA) Lat,Lon (TERRA) SZA (TERRA ) Distance(km) Time Diff (sec)
1 09/28/2024 07:29:25 79.75, 83.72 82.48 09/28/2024 07:29:47 79.75, 83.68 82.48 0.88 22
2 09/28/2024 08:19:59 -79.97,-106.94 97.19 09/28/2024 08:19:03 -79.97,-107.07 97.22 2.55 56
3 09/30/2024 21:59:37 79.76,-133.77 83.51 09/30/2024 21:59:53 79.76,-133.85 83.51 1.61 16
4 09/30/2024 22:50:12 -79.95, 35.29 96.20 09/30/2024 22:49:10 -79.94, 35.16 96.23 2.94 62
5 10/03/2024 12:29:50 79.76, 8.63 84.52 10/03/2024 12:29:59 79.75, 8.57 84.52 1.13 9
6 10/03/2024 13:20:25 -79.95, 177.71 95.18 10/03/2024 13:19:16 -79.94, 177.61 95.21 2.21 69
7 10/06/2024 03:00:03 79.74, 150.92 85.51 10/06/2024 03:00:04 79.75, 150.95 85.52 0.61 1
8 10/08/2024 16:39:41 -79.55, 124.37 93.78 10/08/2024 16:40:54 -79.54, 124.30 93.78 1.58 73
9 10/08/2024 17:30:13 79.81, -66.03 86.62 10/08/2024 17:30:06 79.81, -66.17 86.60 2.91 7
10 10/11/2024 07:09:53 -79.51, -93.50 92.84 10/11/2024 07:10:56 -79.52, -93.38 92.81 2.64 63



Historial Predications of SNOs between METOP-B and TERRA
